INTELSAT 39 (IS-39)

Last updated on Jan. 27, 2020, 4:38 a.m. UTC

1 44476U 19049B   20026.86070819  .00000028  00000-0  00000-0 0  9997
2 44476   0.0181  62.1205 0000272  14.1708  61.0905  1.00271421  1791
UTC
Height (km)
Latitude
Longitude
Inclination
Orbital Period
UTC large
Height (km)
Speed (km/s)
/
Latitude / Longitude
Inclination (degrees)
Orbital Period (minutes)
Azimuth
Elevation
Range (km)
Doppler Factor
iOS Compass Heading
iOS Angle

Next 30 passes for location: Hong Kong

Rise time Rise Azimuth (degrees) Set time Set Azimuth (degrees) Duration Max altitude (degrees)

No matching passes for this satellites